N6EQ Weather Reports


time (UTC)temp
F
wind
direction
speed
knots
gust
knots
rain 1hr
in
rain 24hr
in
rain mn
in
humidity
%
barometer
mb
20260503040032 81 85 5.2 6.1 0.00 0.00 0.00 11 948.4
20260503034529 81 89 4.3 7.0 0.00 0.00 0.00 11 948.3
20260503033028 82 3.5 5.2 0.00 0.00 0.00 11 948.1
20260503031528 83 0.9 3.5 0.00 0.00 0.00 10 948.1
20260503030034 85 1.7 3.5 0.00 0.00 0.00 10 948.0
20260503024527 86 213 0.0 0.0 0.00 0.00 0.00 10 947.9
20260503023026 87 212 0.0 0.0 0.00 0.00 0.00 10 947.6
20260503021525 88 212 0.0 4.3 0.00 0.00 0.00 10 947.7
20260503020025 89 286 0.9 2.6 0.00 0.00 0.00 9 947.8
20260503014524 89 239 1.7 6.1 0.00 0.00 0.00 9 947.8
20260503013035 90 233 2.6 7.8 0.00 0.00 0.00 8 947.9
20260503011522 90 203 1.7 7.0 0.00 0.00 0.00 9 947.9
20260503010023 90 200 7.8 13.0 0.00 0.00 0.00 9 947.9
20260503004521 90 3.5 7.8 0.00 0.00 0.00 9 948.0
20260503003018 90 219 3.5 9.6 0.00 0.00 0.00 9 948.0
20260503001518 90 244 5.2 10.4 0.00 0.00 0.00 9 948.1
20260503000017 91 215 6.1 9.6 0.00 0.00 0.00 9 948.2
20260502234515 90 238 5.2 12.2 0.00 0.00 0.00 9 948.2
20260502233028 90 236 4.3 11.3 0.00 0.00 0.00 8 948.2
20260502231514 91 206 5.2 11.3 0.00 0.00 0.00 8 948.2
20260502230012 91 231 4.3 7.8 0.00 0.00 0.00 8 948.3
20260502224510 91 221 6.1 13.9 0.00 0.00 0.00 8 948.4
20260502223009 91 250 6.1 12.2 0.00 0.00 0.00 8 948.7
20260502221509 90 262 2.6 12.2 0.00 0.00 0.00 8 949.0
20260502220005 91 245 6.1 13.9 0.00 0.00 0.00 8 949.3
20260502214601 90 207 3.5 13.9 0.00 0.00 0.00 8 949.5
20260502213059 91 271 9.6 13.9 0.00 0.00 0.00 7 949.7
20260502211556 90 272 8.7 13.0 0.00 0.00 0.00 8 950.1
20260502210106 90 242 6.1 12.2 0.00 0.00 0.00 8 950.2
20260502204556 90 244 4.3 13.9 0.00 0.00 0.00 8 950.5
20260502203053 90 136 4.3 9.6 0.00 0.00 0.00 8 950.7
20260502201548 90 255 5.2 9.6 0.00 0.00 0.00 8 950.8
20260502200051 89 3.5 9.6 0.00 0.00 0.00 8 951.1
20260502194544 89 4.3 11.3 0.00 0.00 0.00 9 951.3
20260502193046 88 209 2.6 7.8 0.00 0.00 0.00 8 951.5
20260502191544 88 5.2 12.2 0.00 0.00 0.00 8 951.7
20260502190044 87 332 3.5 13.9 0.00 0.00 0.00 9 951.9
20260502184540 87 319 7.8 13.0 0.00 0.00 0.00 10 952.1
20260502183038 87 23 8.7 13.9 0.00 0.00 0.00 11 952.3
20260502181543 86 326 5.2 13.9 0.00 0.00 0.00 11 952.4
20260502163030 80 355 9.6 17.4 0.00 0.00 0.00 13 953.0
20260502161517 79 7.8 15.6 0.00 0.00 0.00 13 953.0
20260502151517 76 6.1 14.8 0.00 0.00 0.00 14 953.0
20260502123049 72 43 3.5 10.4 0.00 0.00 0.00 15 951.8
20260502121541 73 30 5.2 10.4 0.00 0.00 0.00 14 951.6
20260502114537 73 67 0.9 7.8 0.00 0.00 0.00 14 951.3
20260502113037 74 34 2.6 8.7 0.00 0.00 0.00 14 951.4
20260502111539 73 76 0.0 7.8 0.00 0.00 0.00 14 951.3
20260502110035 73 29 0.0 3.5 0.00 0.00 0.00 14 951.4
20260502104537 73 27 0.0 6.1 0.00 0.00 0.00 14 951.4
20260502103033 73 28 0.0 3.5 0.00 0.00 0.00 14 951.3
20260502101532 73 30 0.0 5.2 0.00 0.00 0.00 14 951.3
20260502091528 74 73 0.0 1.7 0.00 0.00 0.00 13 951.3
20260502071516 76 29 0.0 1.7 0.00 0.00 0.00 13 951.1
20260502070013 77 338 0.0 0.9 0.00 0.00 0.00 12 951.0
20260502064512 77 27 0.0 0.9 0.00 0.00 0.00 12 950.9
20260502063012 77 330 0.0 0.9 0.00 0.00 0.00 12 950.8
20260502061519 79 359 0.0 3.5 0.00 0.00 0.00 12 950.7
20260502060011 78 17 0.9 3.5 0.00 0.00 0.00 13 950.5
20260502054510 78 339 0.0 2.6 0.00 0.00 0.00 13 950.5
20260502053010 77 30 0.0 1.7 0.00 0.00 0.00 12 950.6
20260502051520 78 0.0 0.9 0.00 0.00 0.00 12 950.6
20260502050008 79 27 0.0 0.9 0.00 0.00 0.00 12 950.5
20260502044507 80 82 0.0 1.7 0.00 0.00 0.00 11 950.3
20260502043007 80 70 0.0 1.7 0.00 0.00 0.00 11 950.1
20260502041517 81 0.0 2.6 0.00 0.00 0.00 11 950.0